Regional Weather Roundup
Issued by NWS

Home | Current Version | Previous Version | Text Only | Print | Product List | Glossary On
Versions: 1 2 3 4 5 6 7 8 9 10 11 12 13 14 15 16 17 18 19 20 21 22 23 24 25 26 27 28 29 30 31 32 33 34 35 36 37 38 39 40 41 42 43 44 45 46 47 48 49 50
000
ASUS43 KOAX 210310
RWRNE

WEATHER ROUNDUP FOR NEBRASKA
NATIONAL WEATHER SERVICE OMAHA NE
900 PM CST MON FEB 20 2017

NOTES: SATELLITE DATA IS BEING USED TO AUGMENT CLOUD COVER ABOVE
       12000 FEET.
       "FAIR" INDICATES FEW OR NO CLOUDS BELOW 12,000 FEET WITH NO
       SIGNIFICANT WEATHER AND/OR OBSTRUCTIONS TO VISIBILITY.

  * THESE STATIONS DO NOT REPORT WEATHER SUCH AS RAIN...SNOW OR FOG.

NEZ001>004-019>022-054>056-210400-
NEBRASKA PANHANDLE

CITY           SKY/WX    TMP DP  RH WIND       PRES   REMARKS
SCOTTSBLUFF    CLEAR     42  23  46 W3        29.94F
ALLIANCE       CLEAR     39  25  57 CALM      29.92S
CHADRON        CLEAR     49  29  46 SW12      29.87F
KIMBALL        CLEAR     39  21  48 SW5       29.99F
SIDNEY         CLEAR     36  20  52 SW13      29.99S WCI  27
$$

NEZ057>060-069>072-079>082-210400-
SOUTHWEST NEBRASKA

CITY           SKY/WX    TMP DP  RH WIND       PRES   REMARKS
NORTH PLATTE   CLEAR     38  26  62 CALM      29.97R
IMPERIAL       CLEAR     43  16  33 SW3       30.00R
LEXINGTON      CLEAR     40  28  63 SW5       29.98R
MCCOOK         CLEAR     45  24  43 SW6       29.99R
OGALLALA       CLEAR     36  19  50 SW5       29.98R WCI  32
$$

NEZ005>010-023>029-035>040-094-210400-
NORTH CENTRAL NEBRASKA

CITY           SKY/WX    TMP DP  RH WIND       PRES   REMARKS
VALENTINE      CLEAR     34  25  69 SW9       29.89S WCI  27
AINSWORTH      CLEAR     37  29  74 S8        29.90F WCI  30
BROKEN BOW     CLEAR     32  26  78 CALM      29.95S
O`NEILL        CLEAR     39  33  77 SW6       29.93R WCI  35
ORD            CLEAR     40  30  67 S7        29.93S
THEDFORD       CLEAR     43  28  54 S7        29.94R
$$

NEZ041-046>049-061>064-073>077-083>087-210400-
SOUTH CENTRAL NEBRASKA

CITY           SKY/WX    TMP DP  RH WIND       PRES   REMARKS
GRAND ISLAND   CLEAR     44  36  73 S5        29.97R
AURORA         CLEAR     39  35  84 CALM      29.96S
HASTINGS       CLEAR     44  34  67 CALM      29.98R
HEBRON         CLEAR     49  37  64 NE3       29.97S
HOLDREGE       CLEAR     42  30  62 SW3       29.98R
KEARNEY *      CLEAR     45  28  53 CALM      29.98R
YORK           CLEAR     45  39  81 CALM      29.96S
$$

NEZ011>018-030>034-042>045-210400-
NORTHEAST NEBRASKA

CITY           SKY/WX    TMP DP  RH WIND       PRES   REMARKS
NORFOLK        CLEAR     39  34  82 CALM      29.92R
ALBION         CLEAR     40  34  80 CALM      29.94R
BLAIR          CLEAR     48  42  78 NW6       29.93F
FREMONT        CLEAR     42  39  90 CALM      29.94S
TEKAMAH        CLEAR     48  41  76 CALM      29.93R
WAYNE          CLEAR     34  33  97 S6        29.92R WCI  29
$$

NEZ050>053-065>068-078-088>093-210400-
SOUTHEAST NEBRASKA

CITY           SKY/WX    TMP DP  RH WIND       PRES   REMARKS
LINCOLN        CLEAR     39  36  89 CALM      29.97R
OMAHA EPPLEY   PTCLDY    47  40  76 NW7       29.94R
BEATRICE       CLEAR     43  40  86 NW8       29.97R
FALLS CITY     CLOUDY    55  51  86 W9        29.93R
NEBRASKA CITY  CLEAR     51  42  71 N9        29.95R
PLATTSMOUTH    CLEAR     48  41  76 NW8       29.94R
$$

NEZ044-045-051>053-067-210400-
OMAHA AREA

CITY           SKY/WX    TMP DP  RH WIND       PRES   REMARKS
OMAHA EPPLEY   PTCLDY    47  40  76 NW7       29.94R
BLAIR          CLEAR     48  42  78 NW6       29.93F
FREMONT        CLEAR     42  39  90 CALM      29.94S
MILLARD        CLEAR     51  45  78 NW5       29.95R
OFFUTT AFB     MOCLDY    53  46  76 NW8       29.95R
PLATTSMOUTH    CLEAR     48  41  76 NW8       29.94R
WAHOO          FAIR      41  37  86 CALM      29.95S
$$




USA.gov is the U.S. government's official web portal to all federal, state and local government web resources and services.